This demonstration page uses our WeatherBlox Daily Observations layout. Learn more.

Left ArrowRight Arrow

36.17497, -115.13722

Hourly Observations for March 15, 2021

Temp ( °F °C ) Dew Point ( °F °C ) Humidity (%) Winds ( mph kmh ) Pressure ( in mb ) Visibility ( mi km ) Precip ( " mm )
12:53 am 00:53 Clear 55 12.8 26 -3.3 33 33 NE 6 9 29.85 1011 10 16 0.00 0.00
1:53 am 01:53 Clear 53 11.7 26 -3.3 35 35 Calm 29.83 1010 10 16 0.00 0.00
2:53 am 02:53 Clear 53 11.7 26 -3.3 35 35 NNE 5 7 29.81 1010 10 16 0.00 0.00
3:53 am 03:53 Clear 51 10.6 25 -3.9 36 36 E 5 7 29.79 1009 10 16 0.00 0.00
4:53 am 04:53 Mostly Clear 54 12.2 22 -5.6 29 29 SE 6 9 29.77 1008 10 16 0.00 0.00
5:53 am 05:53 Clear 55 12.8 20 -6.7 25 25 S 13 20 29.76 1008 10 16 0.00 0.00
6:53 am 06:53 Sunny 55 12.8 21 -6.1 26 26 S 21 33 29.75 1008 10 16 0.00 0.00
7:53 am 07:53 Sunny 57 13.9 28 -2.2 33 33 SSW 23 37 29.73 1007 10 16 0.00 0.00
8:53 am 08:53 Sunny 59 15 30 -1.1 33 33 S 18 30 29.76 1008 10 16 0.00 0.00
9:53 am 09:53 Sunny 61 16.1 33 0.6 35 35 S 22 35 29.74 1007 10 16 0.00 0.00
10:53 am 10:53 Mostly Cloudy 64 17.8 34 1.1 33 33 S 23 37 29.73 1007 10 16 0.00 0.00
11:53 am 11:53 Mostly Cloudy 66 18.9 30 -1.1 26 26 SSW 20 31 29.70 1006 10 16 0.00 0.00
12:53 pm 12:53 Partly Cloudy 67 19.4 30 -1.1 25 25 S 28 44 29.67 1005 10 16 0.00 0.00
1:53 pm 13:53 Mostly Sunny 66 18.9 30 -1.1 26 26 SSW 25 41 29.63 1003 10 16 0.00 0.00
2:53 pm 14:53 Sunny 67 19.4 32 0 27 27 SSW 22 35 29.60 1002 10 16 0.00 0.00
3:53 pm 15:53 Partly Cloudy 65 18.3 33 0.6 31 31 SSW 20 31 29.57 1001 10 16 0.00 0.00
4:53 pm 16:53 Partly Cloudy 63 17.2 32 0 31 31 WSW 15 24 29.53 1000 10 16 0.00 0.00
5:53 pm 17:53 Cloudy 56 13.3 29 -1.7 36 36 SW 16 26 29.56 1001 10 16 0.00 0.00
6:53 pm 18:53 Mostly Clear 50 10 24 -4.4 36 36 SSW 18 30 29.60 1002 10 16 0.00 0.00
7:53 pm 19:53 Mostly Cloudy 48 8.9 23 -5 37 37 SW 24 39 29.60 1002 10 16 0.00 0.00
8:53 pm 20:53 Mostly Cloudy 48 8.9 21 -6.1 34 34 S 18 30 29.64 1004 10 16 0.00 0.00
9:53 pm 21:53 Cloudy with Light Rain 41 5 31 -0.6 67 67 NW 29 46 29.67 1005 10 16 0.00 0.00
10:53 pm 22:53 Cloudy 41 5 30 -1.1 65 65 NW 17 28 29.70 1006 10 16 0.00 0.00
11:53 pm 23:53 Cloudy 43 6.1 28 -2.2 56 56 NW 9 15 29.70 1006 10 16 0.00 0.00

Powered by AerisWeather